Content
SEND FEEDBACK

Daily
Averages
Monthly
Summary
United States of America

UPLAND, CALIFORNIA


Home > North America > United States > California
Elevation: 1840 feet     Latitude: 34 08N     Longitude: 117 41W

WEATHER
 
SELECT A DAY
Number of Records: 179,779;   Date Range: 1/1/95 - 9/18/14
 
SHARE

PRINT THIS DATA

[ ← Previous Day ]
WEATHER ALMANAC - FEBRUARY 13, 2013
[ Next Day → ]
[ °C ]   °F
Weather ElementAverageHighLow
Temperature53.2 °F69.1 °F (1:53 pm)39 °F (6:53 am)
Dewpoint32.2 °F37.9 °F (7:53 pm)25 °F (12:53 pm)
Humidity48.8 %70 % (6:53 am)20 % (12:53 pm)
Barometer30.19 in30.26 in (7:53 am)30.12 in (2:53 pm)
Wind Speed3.5 mph10.4 mph (1:53 pm)
Weather ElementAverage
Visibility10 mi
Wind DirectionESE (108.3 °)

Weather ElementTotal
Precipitation---
Heating Degree Days11 (Base 65)
Growing Degree Days4.1 (Base 50)
Averaged from 24 records on February 13, 2013
WEATHER CONDITIONS BREAKOUT
WIND DIRECTION BREAKOUT
WEATHER BY HOUR - FEBRUARY 13, 2013
[ °C ]   °F
Local TimeTemperatureDewpointHumidityBarometerVisibilityWind DirectionWind SpeedGust SpeedPrecipitationEventsConditions
1:53 AM41.0 °F30.9 °F67 %30.24 in10.0 miCalmClear
2:53 AM42.1 °F32.0 °F67 %30.23 in10.0 miENE (70°)3.5 mphClear
3:53 AM42.1 °F32.0 °F67 %30.22 in10.0 miCalmClear
4:53 AM41.0 °F30.9 °F67 %30.23 in10.0 miCalmClear
5:53 AM41.0 °F30.9 °F67 %30.24 in10.0 miCalmClear
6:53 AM39.0 °F30.0 °F70 %30.25 in10.0 miCalmClear
7:53 AM45.0 °F32.0 °F60 %30.26 in10.0 miCalmClear
8:12 AM46.4 °F30.2 °F53 %30.26 in10.0 miSSW (210°)3.5 mphClear
8:53 AM51.1 °F30.9 °F46 %30.26 in10.0 miCalmClear
9:53 AM54.0 °F33.1 °F45 %30.25 in10.0 miCalmClear
10:53 AM59.0 °F28.0 °F31 %30.23 in10.0 miCalmClear
11:53 AM64.0 °F28.9 °F27 %30.20 in10.0 miWSW (240°)6.9 mphClear
12:53 PM68.0 °F25.0 °F20 %30.16 in10.0 miWest (270°)9.2 mphClear
1:53 PM69.1 °F32.0 °F25 %30.14 in10.0 miWest (270°)10.4 mphClear
2:53 PM69.1 °F28.9 °F22 %30.12 in10.0 miWest (260°)10.4 mphClear
3:53 PM66.9 °F27.0 °F22 %30.12 in10.0 miWest (260°)8.1 mphClear
4:53 PM64.9 °F33.1 °F31 %30.12 in10.0 miSW (230°)10.4 mphClear
5:53 PM60.1 °F33.1 °F36 %30.14 in10.0 miWSW (250°)5.8 mphClear
6:53 PM57.0 °F34.0 °F42 %30.15 in10.0 miWSW (250°)5.8 mphClear
7:53 PM53.1 °F37.9 °F57 %30.15 in10.0 miWest (260°)5.8 mphClear
8:53 PM53.1 °F37.9 °F57 %30.17 in10.0 miCalmClear
9:53 PM50.0 °F37.9 °F63 %30.17 in10.0 miCalmClear
10:53 PM50.0 °F37.9 °F63 %30.17 in10.0 miCalmClear
11:53 PM48.9 °F37.9 °F66 %30.17 in10.0 miNNE (30°)3.5 mphClear
Hourly data recorded from KONT, located miles away from Upland, California







STORIES FROM OUR PARTNERS